Probability
0 0 0 0 0 0 0 0 0 0 0 0 0 0 0 0 0 0 0 0 0 0 0 0 0 0 0 0 0 0 0 0 0 0 0 0 0 0 0 0 0 0 0
0 0 0 0 0 0 0 0 0 0 0 0 0 0 0 0 0 0 0 0 0 0 0 0 0 0 0 0 0 0 0 0 0 0 0 0 0 0 0 0 0 0 0
0 0 0 0 0 0 0 0 0 0 0 0 0 0 0 0 0 0 0 0 0 0 0 0 0 0 0 0 0 0 0 0 0 0 0 0 0 0 0 0 0 0 0
0 0 0 0 0 0 0 0 0 0 0 0 0 0 0 0 0 0 0 0 0 0 0 0 0 0 0 0 0 0 0 0 0 0 0 0 0 0 0 0 0 0 0
0 0 0 0 0 0 0 0 0 0 0 0 0 0 0 0 0 0 0 0 0 0 0 0 0 0 0 0 0 0 0 0 0 0 0 0 0 0 0 0 0 0 0
0 0 0 0 0 0 0 0 0 0 0 0 0 0 0 0 0 0 0 0 0 0 0 0 0 0 0 0 0 0 0 0 0 0 0 0 0 0 0 0 0 0 0
0 0 0 0 0 0 0 0 0 0 0 0 0 0 0 0 0 0 0 0 0 0 0 0 0 0 0 0 0 0 0 0 0 0 0 0 0 0 0 0 0 0 0
0 0 0 0 0 0 0 0 0 0 0 0 0 0 0 0 0 0 0 0 0 0 0 0 0 0 0 0 0 0 0 0 0 0 0 0 0 0 0 0 0 0 0
0 0 0 0 0 0 0 0 0 0 0 0 0 0 0 0 0 0 0 0 0 0 0 0 0 0 0 0 0 0 0 0 0 0 0 0 0 0 0 0 0 0 0
0 0 0 0 0 0 0 0 0 0 0 0 0 0 0 0 0 0 0 0 0 0 0 0 0 0 0 0 0 0 0 0 0 0 0 0 0 0 0 0 0 0 0
0 0 0 0 0 0 0 0 0 0 0 0 0 0 0 0 0 0 0 0 0 0 0 0 0 0 0 0 0 0 0 0 0 0 0 0 0 0 0 0 0 0 0
0 0 0 0 0 0 0 0 0 0 0 0 0 0 0 0 0 0 0 0 0 0 0 0 0 0 0 0 0 0 0 0 0 0 0 0 0 0 0 0 0 0 0
0 0 0 0 0 0 0 0 0 0 0 0 0 0 0 0 0 0 0 0 0 0 0 0 0 0 0 0 0 0 0 0 0 0 0 0 0 0 0 0 0 0 0
0 0 0 0 0 0 0 0 0 0 0 0 0 0 0 0 0 0 0 0 0 0 0 0 0 0 0 0 0 0 0 0 0 0 0 0 0 0 0 0 0 0 0
0 0 0 0 0 0 0 0 0 0 0 0 0 0 0 0 0 0 0 0 0 0 0 0 0 0 0 0 0 0 0 0 0 0 0 0 0 0 0 0 0 0 0
0 0 0 0 0 0 0 0 0 0 0 0 0 0 0 0 0 0 0 0 0 0 0 0 0 0 0 0 0 0 0 0 0 0 0 0 0 0 0 0 0 0 0
0 0 0 0 0 0 0 0 0 0 0 0 0 0 0 0 0 0 0 0 0 0 0 0 0 0 0 0 0 0 0 0 0 0 0 0 0 0 0 0 0 0 0
0 0 0 0 0 0 0 0 0 0 0 0 0 0 0 0 0 0 0 0 0 0 0 0 0 0 0 0 0 0 0 0 0 0 0 0 0 0 0 0 0 0 0
0 0 0 0 0 0 0 0 0 0 0 0 0 0 0 0 0 0 0 0 0 0 0 0 0 0 0 0 0 0 0 0 0 0 0 0 0 0 0 0 0 0 0
0 0 0 0 0 0 0 0 0 0 0 0 0 0 0 0 0 0 0 0 0 0 0 0 0 0 0 0 0 0 0 0 0 0 0 0 0 0 0 0 0 0 0
0 0 0 0 0 0 0 0 0 0 0 0 0 0 0 0 0 0 0 0 0 0 0 0 0 0 0 0 0 0 0 0 0 0 0 0 0 0 0 0 0 0 0
0 0 0 0 0 0 0 0 0 0 0 0 0 0 0 0 0 0 0 0 0 0 0 0 0 0 0 0 0 0 0 0 0 0 0 0 0 0 0 0 0 0 0
0 0 0 0 0 0 0 0 0 0 0 0 0 0 0 0 0 0 0 0 0 0 0 0 0 0 0 0 0 0 0 0 0 0 0 0 0 0 0 0 0 0 0
0 0 0 0 0 0 0 0 0 0 0 0 0 0 0 0 0 0 0 0 0 0 0 0 0 0 0 0 0 0 0 0 0 0 0 0 0 0 0 0 0 0 0
0 0 0 0 0 0 0 0 0 0 0 0 0 0 0 0 0 0 0 0 0 0 0 0 0 0 0 0 0 0 0 0 0 0 0 0 0 0 0 0 0 0 0
0 0 0 0 0 0 0 0 0 0 0 0 0 0 0 0 0 0 0 0 0 0 0 0 0 0 0 0 0 0 0 0 0 0 0 0 0 0 0 0 0 0 0
Wind_Speed
5 4 3 3 3 2 2 2 2 3 3 4 4 5 5 5 5 5 4 12 15 15 14 14 13 12 11 10 10 9 8 7 7 6 6 5 5 5 5 6 6 6 7
6 5 5 4 4 4 4 4 4 4 4 4 5 6 6 6 6 6 5 8 16 17 17 17 16 15 14 13 13 12 11 10 10 9 8 8 7 7 6 7 6 7 7
7 6 5 5 5 5 5 4 4 3 4 5 6 7 6 7 7 7 7 6 7 15 19 19 19 18 17 16 16 15 14 13 12 12 11 10 9 9 9 8 8 8 8
8 7 6 7 6 5 5 5 4 4 5 5 6 6 6 6 8 9 8 8 7 7 13 21 21 21 20 19 18 17 16 15 15 14 14 13 12 11 11 10 10 10 9
9 8 8 7 6 5 6 7 6 5 6 7 7 7 6 7 8 9 10 11 10 10 9 16 23 23 23 22 21 20 19 18 17 16 16 15 14 13 13 13 12 12 11
10 9 8 7 7 6 6 7 8 7 6 6 7 8 7 8 8 10 12 11 11 13 12 12 11 15 24 24 23 22 21 20 19 18 18 17 16 16 15 15 14 14 13
10 10 9 8 8 9 11 10 7 7 7 3 3 5 7 10 13 12 11 11 13 13 11 12 10 9 10 22 25 24 23 23 21 20 19 19 18 17 17 16 16 16 15
11 11 11 9 9 9 9 9 9 5 5 6 5 2 6 5 6 11 10 10 11 8 10 13 11 11 9 7 15 25 25 24 23 22 21 20 20 19 19 18 18 17 17
11 11 12 11 10 10 11 12 12 11 9 7 8 7 5 7 4 4 6 8 9 8 9 8 11 12 12 10 10 20 26 26 25 24 23 22 21 21 20 20 19 19 18
11 12 12 12 11 10 12 12 12 11 10 9 6 10 10 5 4 6 4 4 6 8 9 10 11 12 12 10 14 21 26 27 27 26 25 24 23 22 22 21 21 20 19
9 11 12 11 12 11 12 12 11 12 11 12 9 6 9 9 8 8 11 6 4 7 9 10 9 9 11 11 10 17 26 27 28 27 26 25 24 24 23 22 21 20 20
6 10 11 11 12 11 13 14 13 13 13 14 12 9 8 7 8 11 15 11 9 6 9 10 10 10 10 10 15 23 27 27 27 27 27 26 25 24 24 23 22 21 21
5 8 9 10 11 12 13 12 12 13 15 14 15 13 12 13 8 8 12 12 9 5 6 8 10 10 10 10 12 25 26 27 27 27 27 26 25 24 24 23 23 22 22
7 8 8 9 11 12 12 12 11 13 12 15 16 16 13 12 11 12 10 9 10 9 7 9 5 10 10 10 15 24 16 26 27 27 27 27 26 25 24 24 23 23 22
7 8 8 9 10 11 12 11 11 13 13 14 14 15 15 12 11 12 11 11 11 12 11 8 8 9 11 10 17 13 11 22 27 27 27 27 27 26 25 24 24 23 23
8 8 9 9 9 10 10 11 11 12 13 13 12 13 15 12 11 11 12 11 12 13 14 5 7 7 9 10 17 13 12 24 27 27 28 27 27 26 26 25 25 24 24
8 9 9 9 10 10 10 10 12 11 13 14 13 14 16 14 12 11 11 12 13 13 18 13 6 7 10 10 10 9 10 12 12 25 27 27 27 26 26 25 25 25 25
9 9 9 10 10 10 10 10 12 12 13 14 14 14 16 12 15 13 12 14 14 14 16 19 8 7 11 10 10 10 10 10 10 21 27 27 27 26 26 25 25 25 25
10 9 9 10 11 11 10 11 12 12 13 13 13 14 14 13 15 13 14 14 13 13 14 16 13 7 8 7 8 9 9 8 10 15 23 26 26 26 26 26 26 26 25
10 10 10 11 11 11 11 11 11 12 12 13 12 13 13 14 15 15 14 14 13 13 13 14 13 8 8 6 7 8 8 8 10 10 15 17 21 26 26 26 26 26 25
11 11 11 11 11 10 10 10 11 12 12 13 12 13 14 17 21 17 13 12 12 12 12 12 13 10 10 7 9 8 11 8 9 8 8 9 10 9 11 19 24 24 24
11 11 11 12 12 10 18 24 19 11 11 12 12 12 13 17 21 26 27 25 20 16 15 14 13 14 13 12 9 10 10 9 9 7 9 10 9 9 8 8 18 24 24
11 12 11 12 12 14 23 25 25 16 11 10 10 10 10 11 17 12 18 25 24 27 26 17 16 16 13 12 12 13 12 10 11 6 7 9 8 10 8 12 23 25 25
11 11 12 12 13 15 24 25 25 15 10 9 9 10 11 11 11 12 11 12 13 14 17 16 14 14 12 11 13 14 13 12 7 6 8 7 6 9 9 8 20 24 25
12 11 11 12 13 15 22 24 24 10 8 10 9 10 10 10 17 22 14 12 12 12 17 23 23 20 23 24 18 10 11 10 10 9 9 7 5 6 7 8 13 23 24
12 12 12 12 13 13 20 23 23 8 8 8 8 9 15 16 18 20 12 11 13 11 9 10 13 16 15 18 25 16 12 10 6 6 8 8 6 5 5 6 8 8 12
Wind_Direction
175 179 188 198 209 201 209 220 225 233 240 244 241 238 241 238 238 237 249 262 267 270 270 268 265 260 257 255 253 253 255 259 265 271 277 284 292 301 310 319 329 333 336
178 182 194 202 210 208 209 212 220 228 237 239 246 240 241 240 240 239 236 255 262 266 268 267 266 263 259 256 254 252 253 255 258 262 265 270 276 281 288 295 304 312 318
184 188 196 207 212 205 206 213 226 228 241 240 245 243 242 239 240 240 238 234 248 260 263 265 266 264 261 257 255 253 252 252 255 257 259 262 266 271 277 282 287 293 301
190 191 203 215 208 197 199 209 214 223 235 236 243 244 241 238 240 240 239 236 232 240 253 257 261 262 262 259 256 253 251 250 252 254 255 256 259 264 269 273 278 282 286
199 201 213 217 197 199 207 218 213 209 229 236 242 246 242 241 243 243 240 237 233 233 232 248 252 255 258 258 257 254 251 249 249 251 253 254 256 258 262 266 270 273 277
205 209 220 216 195 203 214 215 224 214 223 234 251 257 246 240 238 239 241 239 234 232 230 232 241 250 251 253 254 254 253 250 249 249 250 253 254 256 258 262 265 267 270
209 212 225 215 205 216 222 216 215 223 230 205 244 278 262 241 240 239 235 235 236 233 227 226 227 227 242 248 250 251 251 250 249 248 249 250 252 254 256 259 261 263 265
215 217 223 225 215 221 225 218 208 211 220 184 189 238 296 297 247 238 234 233 236 230 229 230 226 226 226 229 242 246 250 251 250 248 247 248 250 252 254 257 258 260 262
222 225 225 225 222 218 227 224 215 214 225 209 196 191 219 248 296 263 233 232 230 225 229 229 228 228 226 225 231 243 245 246 248 249 248 248 249 251 252 255 257 258 260
225 226 229 228 227 224 229 229 221 218 220 225 210 219 226 203 228 290 267 244 236 229 228 229 231 229 226 225 228 232 239 243 245 247 248 248 248 250 251 253 255 256 257
230 231 230 230 232 231 232 233 226 219 219 226 217 205 227 236 227 245 269 255 241 230 227 226 227 227 226 224 224 232 238 240 242 244 245 247 249 250 252 253 255 257 258
240 236 233 233 235 235 235 234 232 226 226 227 227 215 204 206 209 219 245 254 252 232 221 223 223 223 224 224 226 233 237 238 240 242 243 245 248 250 252 254 255 257 258
254 245 234 235 237 238 239 237 234 232 230 228 228 228 226 227 214 213 234 251 254 244 225 225 220 220 222 221 226 235 238 238 239 240 241 243 245 248 250 252 254 256 258
264 259 242 239 240 240 240 237 236 236 234 232 233 231 233 232 225 222 226 239 261 261 233 231 217 218 222 220 225 233 237 239 240 240 240 241 242 245 247 249 252 255 257
270 266 257 251 248 244 243 240 240 238 235 234 234 233 234 234 229 228 227 222 234 259 261 213 206 213 217 219 229 228 224 237 241 241 241 241 241 243 245 247 249 252 254
274 273 270 263 259 253 248 244 245 243 240 238 235 234 235 235 232 229 227 226 224 237 259 230 205 198 208 219 228 226 223 235 241 244 244 243 242 242 244 246 248 250 252
278 274 271 269 266 262 255 250 249 246 244 245 239 237 238 232 233 230 227 226 227 227 249 254 204 199 203 217 228 224 221 229 237 243 246 245 244 243 245 247 248 249 251
279 275 274 272 270 266 259 254 256 252 248 248 244 241 242 236 235 232 229 229 228 225 236 254 237 207 213 214 219 222 224 226 225 240 244 246 245 245 246 247 248 249 250
284 280 276 273 272 269 264 259 258 257 253 251 247 243 243 237 239 235 231 232 230 230 231 244 248 220 218 212 217 225 227 228 226 236 242 244 245 246 247 247 248 248 249
285 283 279 275 273 272 268 265 263 262 259 255 250 246 244 238 239 237 235 234 231 231 231 238 245 232 221 199 205 218 229 224 230 230 236 238 243 247 248 248 248 248 249
285 283 283 280 276 275 271 266 261 259 258 258 254 249 246 245 244 243 239 234 228 231 231 234 239 235 224 203 211 208 226 225 227 221 226 233 238 240 241 248 249 248 249
287 286 284 283 281 279 286 289 287 269 257 256 257 254 251 255 256 256 253 247 233 227 227 229 233 232 227 218 212 211 219 222 230 206 216 229 223 231 230 229 243 247 250
289 289 286 284 283 282 290 292 292 288 271 262 258 258 259 256 260 252 256 258 253 245 234 226 231 230 225 215 211 215 215 215 223 196 197 228 220 229 227 234 240 243 247
292 291 290 287 285 286 294 297 297 293 280 268 262 258 258 258 254 254 247 247 248 251 249 239 232 231 225 215 209 214 216 223 227 209 194 223 215 224 227 227 241 244 247
294 291 291 291 289 291 296 299 299 286 277 271 264 259 260 257 263 265 257 248 249 249 255 253 245 237 230 226 214 211 213 216 226 218 201 213 216 222 227 229 236 243 246
294 296 294 291 290 290 294 300 300 287 280 278 271 262 267 269 269 269 259 247 249 247 237 246 251 253 243 232 226 214 207 213 215 214 194 198 203 191 230 226 224 229 240